THOR ABLESTAR DEB, 13513

Orbit data source: Space-Track

THOR ABLESTAR DEB, 13513 is space debris in LEO originally from a launch on Thu, 29 Jun 1961 UTC launched from the Air Force Eastern Test Range (AFETR). Debris objects in space refer to the collection of defunct objects orbiting the Earth. Examples of debris include non-operational satellites, rocket bodies, and fragments generated from explosions, collisions, or faulty payload assembly.

Loading next visibility...
Identifier
13513, 1961-015KW
Orbit
LEO
Country
Flag of USUS
Related business
Manufacturer
Unknown
Mission
Spacecraft
Bus & Motor
Unknown
Mass
Unknown
Launch date (UTC)
1961-06-29 (65 years ago)
Launch vehicle
Unknown
Launch site
Air Force Eastern Test Range (AFETR)
Object type
Payload
Rocket body
Debris
Shape & HBR
Unknown shape, 0.1 m
Radar Cross Section
Small (<0.1 m²)

Expand to show TLE details & history
Last TLE update: 7 hours ago

TLE from 7 hours ago
0 THOR ABLESTAR DEB
1 13513U 61015KW  26133.42379265  .00000796  00000-0  68837-3 0  9996
2 13513  65.6776 281.4016 0101859 233.9931 157.9813 13.89667019314336
Epoch: 2026-05-13T10:10Z
TLE epoch observation values (Epoch: 2026-05-13T10:10:15.684Z)
Latitude
29.29574°
Longitude
-87.73481°
Altitude
1,001.639 km
Speed
7.319 km/s
True Right ascension
19h 44m 03s
True Declination
29° 09' 15"
Sunlit
Object was in daylight at epoch
Visualization orbit readout
Latitude
Unknown
Longitude
Unknown
Altitude
Unknown
Speed
Unknown
Apparent Right ascension
Unknown
Apparent Declination
Unknown
Sunlit
N/A
Visualization observer readout
Local Sidereal Time
01:57:39
Azimuth
Unknown
Elevation
Unknown
Doppler factor
Unknown
Orbital elements
Apogee altitude
1,002.746 km
Perigee altitude
853.9 km
Semi-major axis
7,306.46 km
Eccentricity
0.01019
Inclination
65.6776°
RAAN
281.4016°
Arg. of periapsis
233.9931°
True anomaly
158.41379°
Mean anomaly
157.9813°
Eccentric anomaly
158.19805°
Mean motion
3.47522 °/min
Orbital period
103.59 mins
BSTAR
0.00068837
Loading maneuver chart data...
Computing Atmospheric mass density...

Documentation

Showing up to 5 results
|